Location: �clusier
(49.9361°N, 2.7869°E)
Time: 04:26:45
(UTC+00:00)

Cosmos 1943 Rocket - Pass Details

Date: 05 November 2021
Orbit: 811 x 844 km, 71.0° (Epoch: 07 December)

Event Time Altitude Azimuth Distance (km) Brightness Sun altitude
Rises 20:01:52 0° 325° (NW) 3,411 6.0 -35.8°
Reaches altitude 10° 20:04:32 10° 316° (NW) 2,469 5.3 -36.2°
Enters shadow 20:08:47 31° 269° (W) 1,428 3.7 -36.9°
